| time (UTC) | temp C | wind direction | speed KPH | gust KPH | rain 1hr cm | rain 24hr cm | rain mn cm | humidity % | barometer mb |
| 20260507104205 | 8 | 243 | 9.7 | 19.3 | 0.00 | 0.86 | 0.23 | 91 | 1013.4 |
| 20260507103705 | 9 | 238 | 9.7 | 19.3 | 0.00 | 0.86 | 0.23 | 92 | 1013.4 |
| 20260507103208 | 8 | 222 | 11.3 | 19.3 | 0.00 | 0.86 | 0.23 | 93 | 1013.4 |
| 20260507102705 | 8 | 259 | 9.7 | 17.7 | 0.00 | 0.86 | 0.23 | 93 | 1013.4 |
| 20260507102206 | 8 | 285 | 9.7 | 17.7 | 0.00 | 0.86 | 0.23 | 93 | 1013.4 |
| 20260507101705 | 8 | 231 | 8.0 | 17.7 | 0.03 | 0.86 | 0.23 | 93 | 1013.4 |
| 20260507101205 | 8 | 243 | 9.7 | 19.3 | 0.03 | 0.86 | 0.23 | 94 | 1013.3 |
| 20260507100205 | 8 | 231 | 9.7 | 19.3 | 0.03 | 0.86 | 0.23 | 94 | 1013.3 |
| 20260507095705 | 8 | 217 | 8.0 | 11.3 | 0.03 | 0.86 | 0.23 | 94 | 1013.2 |
| 20260507095205 | 8 | 276 | 4.8 | 9.7 | 0.03 | 0.86 | 0.23 | 94 | 1013.2 |
| 20260507094705 | 8 | 283 | 4.8 | 9.7 | 0.03 | 0.86 | 0.23 | 94 | 1013.1 |
| 20260507093205 | 8 | 286 | 6.4 | 14.5 | 0.03 | 0.86 | 0.23 | 94 | 1013.0 |
| 20260507092705 | 8 | 309 | 6.4 | 12.9 | 0.03 | 0.86 | 0.23 | 94 | 1012.7 |
| 20260507092206 | 8 | 284 | 6.4 | 11.3 | 0.00 | 0.84 | 0.23 | 94 | 1012.7 |
| 20260507091225 | 8 | 278 | 4.8 | 11.3 | 0.00 | 0.84 | 0.23 | 94 | 1012.7 |
| 20260507090705 | 8 | 222 | 4.8 | 8.0 | 0.00 | 0.84 | 0.23 | 94 | 1012.6 |
| 20260507090205 | 8 | 231 | 3.2 | 8.0 | 0.00 | 0.84 | 0.23 | 94 | 1012.6 |
| 20260507085705 | 8 | 284 | 4.8 | 8.0 | 0.00 | 0.84 | 0.23 | 94 | 1012.5 |
| 20260507085206 | 8 | 295 | 4.8 | 9.7 | 0.00 | 0.84 | 0.23 | 94 | 1012.5 |
| 20260507084705 | 8 | 272 | 3.2 | 12.9 | 0.00 | 0.84 | 0.23 | 94 | 1012.3 |
| 20260507084205 | 8 | 302 | 4.8 | 12.9 | 0.00 | 0.84 | 0.23 | 94 | 1012.3 |
| 20260507083205 | 8 | 316 | 8.0 | 14.5 | 0.00 | 0.84 | 0.23 | 94 | 1012.2 |
| 20260507082705 | 8 | 279 | 8.0 | 17.7 | 0.00 | 0.84 | 0.23 | 94 | 1012.2 |
| 20260507081706 | 8 | 300 | 8.0 | 17.7 | 0.00 | 0.84 | 0.23 | 94 | 1012.0 |
| 20260507081205 | 8 | 312 | 6.4 | 16.1 | 0.00 | 0.84 | 0.23 | 94 | 1012.0 |
| 20260507080705 | 8 | 257 | 6.4 | 11.3 | 0.00 | 0.84 | 0.23 | 94 | 1012.0 |
| 20260507080205 | 8 | 286 | 6.4 | 14.5 | 0.00 | 0.84 | 0.23 | 94 | 1011.9 |
| 20260507075705 | 8 | 274 | 6.4 | 14.5 | 0.00 | 0.84 | 0.23 | 94 | 1011.9 |
| 20260507075205 | 8 | 269 | 6.4 | 17.7 | 0.00 | 0.84 | 0.23 | 94 | 1011.9 |
| 20260507074705 | 8 | 274 | 8.0 | 17.7 | 0.00 | 0.84 | 0.23 | 94 | 1011.8 |
| 20260507074206 | 8 | 324 | 6.4 | 11.3 | 0.00 | 0.84 | 0.23 | 94 | 1011.7 |
| 20260507073705 | 8 | 258 | 6.4 | 11.3 | 0.00 | 0.84 | 0.23 | 94 | 1011.6 |
| 20260507073205 | 8 | 32 | 6.4 | 9.7 | 0.00 | 0.84 | 0.23 | 94 | 1011.5 |
| 20260507072705 | 8 | 264 | 4.8 | 12.9 | 0.00 | 0.84 | 0.23 | 94 | 1011.4 |
| 20260507072206 | 8 | 236 | 4.8 | 12.9 | 0.00 | 0.84 | 0.23 | 94 | 1011.4 |
| 20260507071205 | 8 | 277 | 6.4 | 12.9 | 0.00 | 0.84 | 0.23 | 94 | 1011.2 |
| 20260507070705 | 8 | 262 | 6.4 | 12.9 | 0.03 | 0.84 | 0.23 | 94 | 1011.1 |
| 20260507070205 | 8 | 269 | 6.4 | 11.3 | 0.03 | 0.84 | 0.23 | 94 | 1011.1 |
| 20260507065705 | 8 | 276 | 4.8 | 14.5 | 0.03 | 0.84 | 0.23 | 94 | 1011.2 |
| 20260507064706 | 8 | 279 | 8.0 | 14.5 | 0.03 | 0.84 | 0.23 | 94 | 1011.2 |
| 20260507064205 | 8 | 250 | 8.0 | 12.9 | 0.03 | 0.84 | 0.23 | 94 | 1011.1 |
| 20260507063705 | 8 | 243 | 8.0 | 12.9 | 0.05 | 0.84 | 0.23 | 94 | 1011.0 |
| 20260507062705 | 8 | 250 | 6.4 | 12.9 | 0.05 | 0.84 | 0.23 | 94 | 1010.9 |
| 20260507061705 | 8 | 224 | 6.4 | 12.9 | 0.05 | 0.84 | 0.23 | 94 | 1010.9 |
| 20260507061208 | 8 | 271 | 6.4 | 12.9 | 0.03 | 0.81 | 0.20 | 94 | 1010.9 |
| 20260507060705 | 8 | 262 | 4.8 | 11.3 | 0.03 | 0.81 | 0.20 | 94 | 1010.7 |
| 20260507060205 | 8 | 269 | 4.8 | 9.7 | 0.03 | 0.81 | 0.20 | 94 | 1010.6 |
| 20260507055705 | 8 | 321 | 4.8 | 9.7 | 0.03 | 0.81 | 0.20 | 94 | 1010.5 |
| 20260507055205 | 8 | 300 | 6.4 | 9.7 | 0.03 | 0.81 | 0.20 | 94 | 1010.4 |
| 20260507054705 | 8 | 233 | 4.8 | 9.7 | 0.03 | 0.81 | 0.20 | 94 | 1010.4 |
| 20260507054205 | 8 | 269 | 4.8 | 9.7 | 0.00 | 0.79 | 0.18 | 94 | 1010.4 |
| 20260507053705 | 8 | 222 | 4.8 | 9.7 | 0.00 | 0.79 | 0.18 | 94 | 1010.4 |
| 20260507052705 | 8 | 264 | 4.8 | 12.9 | 0.00 | 0.79 | 0.18 | 94 | 1010.3 |
| 20260507052206 | 8 | 238 | 4.8 | 12.9 | 0.00 | 0.79 | 0.18 | 94 | 1010.3 |
| 20260507051733 | 8 | 243 | 4.8 | 6.4 | 0.00 | 0.79 | 0.18 | 94 | 1010.2 |
| 20260507051205 | 8 | 305 | 3.2 | 6.4 | 0.00 | 0.79 | 0.18 | 94 | 1010.1 |
| 20260507050705 | 8 | 286 | 3.2 | 9.7 | 0.00 | 0.79 | 0.18 | 94 | 1010.0 |
| 20260507050205 | 8 | 283 | 4.8 | 9.7 | 0.03 | 0.79 | 0.18 | 94 | 1010.0 |
| 20260507045705 | 8 | 309 | 4.8 | 9.7 | 0.03 | 0.79 | 0.18 | 94 | 1009.8 |
| 20260507045205 | 8 | 300 | 4.8 | 9.7 | 0.03 | 0.79 | 0.18 | 94 | 1009.7 |
| 20260507044705 | 8 | 291 | 4.8 | 9.7 | 0.03 | 0.79 | 0.18 | 94 | 1009.6 |
| 20260507044206 | 8 | 264 | 4.8 | 11.3 | 0.05 | 0.79 | 0.18 | 94 | 1009.6 |
| 20260507043705 | 8 | 293 | 4.8 | 11.3 | 0.05 | 0.79 | 0.18 | 94 | 1009.5 |
| 20260507043205 | 8 | 308 | 4.8 | 11.3 | 0.05 | 0.79 | 0.18 | 94 | 1009.5 |
| 20260507042705 | 8 | 295 | 4.8 | 8.0 | 0.05 | 0.79 | 0.18 | 94 | 1009.5 |
| 20260507042205 | 8 | 240 | 4.8 | 8.0 | 0.05 | 0.79 | 0.18 | 94 | 1009.4 |
| 20260507041706 | 8 | 257 | 4.8 | 9.7 | 0.05 | 0.79 | 0.18 | 94 | 1009.4 |
| 20260507041205 | 8 | 259 | 4.8 | 9.7 | 0.08 | 0.79 | 0.18 | 94 | 1009.4 |
| 20260507040706 | 8 | 284 | 4.8 | 9.7 | 0.08 | 0.79 | 0.18 | 94 | 1009.3 |
| 20260507035705 | 8 | 227 | 3.2 | 8.0 | 0.08 | 0.79 | 0.15 | 94 | 1009.0 |
| 20260507035208 | 8 | 302 | 3.2 | 8.0 | 0.10 | 0.79 | 0.15 | 93 | 1009.0 |
| 20260507034705 | 8 | 297 | 3.2 | 8.0 | 0.10 | 0.79 | 0.15 | 93 | 1009.0 |
| 20260507034206 | 8 | 238 | 3.2 | 8.0 | 0.08 | 0.76 | 0.15 | 94 | 1009.0 |
| 20260507033705 | 8 | 236 | 4.8 | 8.0 | 0.08 | 0.76 | 0.15 | 94 | 1009.0 |
| 20260507032705 | 8 | 258 | 3.2 | 9.7 | 0.05 | 0.74 | 0.13 | 94 | 1009.0 |
| 20260507031705 | 8 | 248 | 4.8 | 11.3 | 0.05 | 0.74 | 0.13 | 93 | 1008.9 |
| 20260507031205 | 8 | 281 | 4.8 | 11.3 | 0.05 | 0.71 | 0.10 | 93 | 1008.9 |
| 20260507030205 | 8 | 309 | 4.8 | 11.3 | 0.03 | 0.71 | 0.08 | 94 | 1008.7 |
| 20260507025206 | 8 | 302 | 4.8 | 12.9 | 0.00 | 0.69 | 0.05 | 94 | 1008.7 |
| 20260507024705 | 8 | 276 | 4.8 | 12.9 | 0.00 | 0.69 | 0.05 | 94 | 1008.7 |
| 20260507024206 | 8 | 319 | 8.0 | 14.5 | 0.00 | 0.69 | 0.05 | 94 | 1008.7 |
| 20260507023705 | 8 | 233 | 8.0 | 14.5 | 0.00 | 0.69 | 0.05 | 93 | 1008.7 |
| 20260507021706 | 8 | 262 | 8.0 | 16.1 | 0.03 | 0.69 | 0.05 | 93 | 1008.4 |
| 20260507020705 | 9 | 250 | 6.4 | 12.9 | 0.03 | 0.69 | 0.05 | 93 | 1008.3 |
| 20260507015705 | 9 | 191 | 8.0 | 14.5 | 0.03 | 0.69 | 0.05 | 93 | 1008.1 |
| 20260507014705 | 9 | 269 | 6.4 | 12.9 | 0.03 | 0.69 | 0.05 | 93 | 1008.1 |
| 20260507014206 | 9 | 240 | 8.0 | 12.9 | 0.03 | 0.69 | 0.05 | 93 | 1008.1 |
| 20260507013705 | 9 | 277 | 6.4 | 12.9 | 0.03 | 0.69 | 0.05 | 93 | 1008.1 |
| 20260507013204 | 9 | 257 | 6.4 | 12.9 | 0.03 | 0.69 | 0.05 | 93 | 1008.1 |
| 20260507011706 | 9 | 233 | 6.4 | 14.5 | 0.00 | 0.66 | 0.05 | 93 | 1008.0 |
| 20260507005705 | 9 | 286 | 11.3 | 17.7 | 0.05 | 0.66 | 0.05 | 93 | 1008.0 |
| 20260507005206 | 9 | 252 | 11.3 | 17.7 | 0.05 | 0.66 | 0.05 | 93 | 1007.9 |
| 20260507004205 | 9 | 248 | 11.3 | 17.7 | 0.08 | 0.66 | 0.05 | 93 | 1008.0 |
| 20260507003705 | 9 | 208 | 9.7 | 16.1 | 0.10 | 0.66 | 0.05 | 93 | 1007.9 |
| 20260507003205 | 10 | 203 | 9.7 | 20.9 | 0.10 | 0.66 | 0.05 | 93 | 1007.9 |
| 20260507002706 | 10 | 239 | 11.3 | 20.9 | 0.13 | 0.66 | 0.05 | 93 | 1007.9 |
| 20260507001705 | 10 | 250 | 9.7 | 16.1 | 0.13 | 0.64 | 0.03 | 93 | 1007.8 |
| 20260507001231 | 10 | 255 | 8.0 | 12.9 | 0.13 | 0.64 | 0.03 | 93 | 1007.9 |
| 20260507000705 | 10 | 250 | 6.4 | 16.1 | 0.10 | 0.61 | 0.00 | 93 | 1007.9 |
| 20260507000206 | 10 | 264 | 8.0 | 16.1 | 0.10 | 0.61 | 0.61 | 93 | 1008.0 |
| 20260506235705 | 10 | 222 | 9.7 | 16.1 | 0.08 | 0.61 | 0.61 | 93 | 1007.9 |
| 20260506235205 | 10 | 219 | 8.0 | 14.5 | 0.08 | 0.58 | 0.58 | 93 | 1007.9 |
| 20260506234705 | 10 | 226 | 8.0 | 14.5 | 0.08 | 0.58 | 0.58 | 93 | 1007.9 |
| 20260506234204 | 10 | 283 | 9.7 | 14.5 | 0.08 | 0.56 | 0.56 | 92 | 1007.8 |
| 20260506233205 | 10 | 271 | 6.4 | 14.5 | 0.10 | 0.56 | 0.56 | 92 | 1007.8 |
| 20260506232731 | 10 | 214 | 6.4 | 14.5 | 0.10 | 0.53 | 0.53 | 92 | 1007.7 |
| 20260506232206 | 10 | 253 | 6.4 | 14.5 | 0.13 | 0.56 | 0.53 | 92 | 1007.7 |
| 20260506230205 | 10 | 245 | 4.8 | 9.7 | 0.15 | 0.53 | 0.51 | 92 | 1007.6 |
| 20260506225708 | 10 | 252 | 4.8 | 9.7 | 0.18 | 0.56 | 0.51 | 92 | 1007.6 |
| 20260506225205 | 10 | 248 | 4.8 | 9.7 | 0.18 | 0.56 | 0.51 | 92 | 1007.6 |
| 20260506224705 | 11 | 262 | 4.8 | 9.7 | 0.20 | 0.58 | 0.51 | 92 | 1007.5 |
| 20260506224237 | 11 | 258 | 6.4 | 9.7 | 0.18 | 0.58 | 0.48 | 92 | 1007.5 |
| 20260506223705 | 11 | 224 | 6.4 | 12.9 | 0.15 | 0.56 | 0.46 | 92 | 1007.5 |
| 20260506223205 | 11 | 246 | 6.4 | 14.5 | 0.15 | 0.56 | 0.43 | 92 | 1007.3 |
| 20260506222705 | 11 | 269 | 6.4 | 14.5 | 0.13 | 0.53 | 0.43 | 92 | 1007.4 |
| 20260506222205 | 11 | 257 | 6.4 | 14.5 | 0.10 | 0.53 | 0.41 | 92 | 1007.3 |
| 20260506221705 | 11 | 234 | 6.4 | 14.5 | 0.13 | 0.56 | 0.41 | 92 | 1007.2 |
| 20260506221205 | 11 | 271 | 8.0 | 14.5 | 0.10 | 0.53 | 0.38 | 92 | 1007.2 |
| 20260506220705 | 11 | 250 | 8.0 | 14.5 | 0.08 | 0.51 | 0.36 | 92 | 1007.1 |
| 20260506220205 | 11 | 248 | 8.0 | 12.9 | 0.08 | 0.51 | 0.33 | 92 | 1007.1 |
| 20260506215705 | 11 | 229 | 6.4 | 9.7 | 0.05 | 0.48 | 0.33 | 92 | 1007.1 |
| 20260506215206 | 11 | 233 | 6.4 | 11.3 | 0.03 | 0.46 | 0.30 | 91 | 1007.1 |
| 20260506214705 | 11 | 240 | 6.4 | 12.9 | 0.03 | 0.46 | 0.30 | 91 | 1007.1 |
| 20260506213205 | 11 | 252 | 6.4 | 12.9 | 0.03 | 0.46 | 0.30 | 91 | 1007.1 |
| 20260506212705 | 11 | 238 | 6.4 | 11.3 | 0.03 | 0.46 | 0.30 | 91 | 1007.0 |
| 20260506211706 | 11 | 252 | 8.0 | 14.5 | 0.00 | 0.43 | 0.28 | 91 | 1006.9 |
| 20260506211205 | 11 | 219 | 9.7 | 16.1 | 0.03 | 0.43 | 0.28 | 91 | 1006.9 |
| 20260506210705 | 11 | 222 | 11.3 | 16.1 | 0.03 | 0.43 | 0.28 | 91 | 1006.9 |
| 20260506210205 | 11 | 226 | 9.7 | 16.1 | 0.03 | 0.43 | 0.28 | 91 | 1006.9 |
| 20260506205706 | 11 | 233 | 9.7 | 12.9 | 0.05 | 0.43 | 0.28 | 90 | 1006.9 |
| 20260506205205 | 11 | 257 | 6.4 | 11.3 | 0.05 | 0.43 | 0.28 | 90 | 1006.9 |
| 20260506204705 | 11 | 245 | 4.8 | 11.3 | 0.05 | 0.43 | 0.28 | 90 | 1006.9 |
| 20260506204206 | 11 | 252 | 6.4 | 11.3 | 0.08 | 0.43 | 0.28 | 90 | 1006.8 |
| 20260506203705 | 11 | 243 | 4.8 | 11.3 | 0.08 | 0.43 | 0.28 | 90 | 1006.8 |
| 20260506203205 | 11 | 220 | 4.8 | 16.1 | 0.08 | 0.43 | 0.28 | 89 | 1006.7 |
| 20260506202706 | 11 | 212 | 6.4 | 16.1 | 0.10 | 0.43 | 0.28 | 89 | 1006.8 |
| 20260506202206 | 11 | 226 | 8.0 | 16.1 | 0.15 | 0.43 | 0.28 | 89 | 1006.7 |
| 20260506201705 | 11 | 224 | 9.7 | 14.5 | 0.20 | 0.43 | 0.25 | 89 | 1006.6 |
| 20260506201205 | 12 | 253 | 8.0 | 12.9 | 0.23 | 0.43 | 0.25 | 88 | 1006.7 |
| 20260506200706 | 12 | 269 | 8.0 | 14.5 | 0.25 | 0.43 | 0.25 | 88 | 1006.6 |
| 20260506200205 | 12 | 257 | 8.0 | 17.7 | 0.23 | 0.41 | 0.23 | 88 | 1006.5 |
| 20260506195206 | 12 | 238 | 11.3 | 24.1 | 0.23 | 0.38 | 0.23 | 87 | 1006.5 |
| 20260506194705 | 12 | 243 | 11.3 | 24.1 | 0.23 | 0.38 | 0.23 | 86 | 1006.4 |
| 20260506194204 | 12 | 257 | 11.3 | 24.1 | 0.20 | 0.36 | 0.20 | 86 | 1006.4 |
| 20260506193705 | 12 | 255 | 11.3 | 17.7 | 0.20 | 0.36 | 0.20 | 85 | 1006.4 |
| 20260506193204 | 13 | 245 | 8.0 | 17.7 | 0.20 | 0.36 | 0.20 | 84 | 1006.2 |
| 20260506192705 | 13 | 212 | 8.0 | 17.7 | 0.15 | 0.33 | 0.15 | 83 | 1006.1 |
| 20260506192206 | 13 | 245 | 11.3 | 17.7 | 0.10 | 0.25 | 0.10 | 82 | 1006.1 |
| 20260506191705 | 13 | 252 | 9.7 | 20.9 | 0.05 | 0.20 | 0.05 | 81 | 1005.9 |
| 20260506191205 | 13 | 221 | 9.7 | 24.1 | 0.00 | 0.15 | 0.00 | 80 | 1005.8 |
| 20260506190704 | 13 | 314 | 11.3 | 24.1 | 0.00 | 0.15 | 0.00 | 79 | 1005.8 |
| 20260506190205 | 13 | 255 | 12.9 | 24.1 | 0.00 | 0.15 | 0.00 | 79 | 1005.7 |
| 20260506185206 | 13 | 214 | 9.7 | 25.7 | 0.00 | 0.15 | 0.00 | 78 | 1005.5 |
| 20260506184705 | 13 | 240 | 11.3 | 25.7 | 0.00 | 0.15 | 0.00 | 77 | 1005.5 |
| 20260506184206 | 14 | 250 | 12.9 | 25.7 | 0.00 | 0.15 | 0.00 | 77 | 1005.5 |
| 20260506183706 | 14 | 207 | 11.3 | 17.7 | 0.00 | 0.15 | 0.00 | 77 | 1005.4 |
| 20260506183205 | 14 | 231 | 11.3 | 19.3 | 0.00 | 0.15 | 0.00 | 76 | 1005.4 |
| 20260506182705 | 14 | 252 | 9.7 | 20.9 | 0.00 | 0.15 | 0.00 | 75 | 1005.2 |
| 20260506182206 | 15 | 233 | 11.3 | 20.9 | 0.00 | 0.15 | 0.00 | 74 | 1005.1 |
| 20260506181707 | 15 | 226 | 12.9 | 20.9 | 0.00 | 0.18 | 0.00 | 73 | 1005.1 |
| 20260506180723 | 15 | 208 | 14.5 | 24.1 | 0.00 | 0.18 | 0.00 | 70 | 1004.9 |
| 20260506180205 | 15 | 229 | 11.3 | 24.1 | 0.00 | 0.18 | 0.00 | 68 | 1004.9 |
| 20260506175705 | 15 | 229 | 6.4 | 12.9 | 0.00 | 0.18 | 0.00 | 66 | 1004.7 |
| 20260506175206 | 15 | 250 | 6.4 | 16.1 | 0.00 | 0.18 | 0.00 | 65 | 1004.7 |
| 20260506174705 | 15 | 259 | 8.0 | 16.1 | 0.00 | 0.20 | 0.00 | 65 | 1004.7 |
| 20260506173708 | 15 | 239 | 8.0 | 17.7 | 0.00 | 0.23 | 0.00 | 65 | 1004.7 |
| 20260506172206 | 15 | 290 | 9.7 | 20.9 | 0.00 | 0.25 | 0.00 | 63 | 1004.6 |
| 20260506171705 | 16 | 226 | 11.3 | 22.5 | 0.00 | 0.30 | 0.00 | 63 | 1004.4 |
| 20260506171204 | 16 | 217 | 11.3 | 22.5 | 0.00 | 0.30 | 0.00 | 63 | 1004.3 |
| 20260506165705 | 16 | 240 | 12.9 | 22.5 | 0.00 | 0.36 | 0.00 | 62 | 1004.2 |
| 20260506165204 | 16 | 290 | 12.9 | 20.9 | 0.00 | 0.41 | 0.00 | 61 | 1004.1 |
| 20260506164705 | 16 | 222 | 12.9 | 20.9 | 0.00 | 0.43 | 0.00 | 61 | 1004.1 |
| 20260506164206 | 16 | 221 | 12.9 | 20.9 | 0.00 | 0.46 | 0.00 | 61 | 1004.0 |
| 20260506163705 | 16 | 238 | 11.3 | 22.5 | 0.00 | 0.51 | 0.00 | 61 | 1004.0 |
| 20260506162214 | 16 | 203 | 11.3 | 20.9 | 0.00 | 0.61 | 0.00 | 60 | 1004.1 |
| 20260506160232 | 17 | 219 | 9.7 | 19.3 | 0.00 | 0.81 | 0.00 | 60 | 1004.2 |
| 20260506155705 | 17 | 224 | 9.7 | 14.5 | 0.00 | 0.86 | 0.00 | 60 | 1004.2 |
| 20260506155205 | 17 | 217 | 9.7 | 14.5 | 0.00 | 0.89 | 0.00 | 63 | 1004.2 |
| 20260506154206 | 17 | 222 | 11.3 | 19.3 | 0.00 | 1.02 | 0.00 | 61 | 1004.2 |
| 20260506153705 | 17 | 220 | 11.3 | 16.1 | 0.00 | 1.27 | 0.00 | 61 | 1004.2 |
| 20260506152705 | 17 | 222 | 9.7 | 16.1 | 0.00 | 1.80 | 0.00 | 61 | 1004.3 |
| 20260506152207 | 17 | 224 | 9.7 | 16.1 | 0.00 | 1.96 | 0.00 | 63 | 1004.3 |
| 20260506151706 | 17 | 243 | 9.7 | 17.7 | 0.00 | 2.26 | 0.00 | 59 | 1004.2 |
| 20260506150705 | 17 | 212 | 9.7 | 17.7 | 0.00 | 2.59 | 0.00 | 59 | 1004.1 |
| 20260506150205 | 17 | 210 | 9.7 | 17.7 | 0.00 | 2.59 | 0.00 | 59 | 1004.1 |
| 20260506145206 | 18 | 215 | 11.3 | 17.7 | 0.00 | 2.59 | 0.00 | 57 | 1004.2 |
| 20260506144706 | 18 | 236 | 9.7 | 17.7 | 0.00 | 2.59 | 0.00 | 55 | 1004.2 |
| 20260506144208 | 18 | 212 | 9.7 | 20.9 | 0.00 | 2.59 | 0.00 | 60 | 1004.1 |
| 20260506143205 | 18 | 221 | 12.9 | 20.9 | 0.00 | 2.59 | 0.00 | 56 | 1004.2 |
| 20260506142705 | 17 | 214 | 11.3 | 20.9 | 0.00 | 2.59 | 0.00 | 58 | 1004.3 |
| 20260506142209 | 17 | 202 | 9.7 | 16.1 | 0.00 | 2.59 | 0.00 | 59 | 1004.3 |
| 20260506141706 | 17 | 245 | 8.0 | 25.7 | 0.00 | 2.59 | 0.00 | 59 | 1004.2 |
| 20260506141205 | 17 | 238 | 11.3 | 25.7 | 0.00 | 2.59 | 0.00 | 56 | 1004.2 |
| 20260506140705 | 17 | 231 | 9.7 | 14.5 | 0.00 | 2.59 | 0.00 | 56 | 1004.3 |
| 20260506140205 | 17 | 229 | 6.4 | 12.9 | 0.00 | 2.59 | 0.00 | 60 | 1004.2 |
| 20260506135205 | 17 | 161 | 9.7 | 22.5 | 0.00 | 2.59 | 0.00 | 59 | 1004.1 |
| 20260506134205 | 17 | 236 | 8.0 | 12.9 | 0.00 | 2.59 | 0.00 | 62 | 1004.2 |
| 20260506133205 | 17 | 233 | 8.0 | 17.7 | 0.00 | 2.59 | 0.00 | 61 | 1004.3 |
| 20260506132705 | 17 | 229 | 9.7 | 17.7 | 0.00 | 2.59 | 0.00 | 61 | 1004.4 |
| 20260506132206 | 17 | 245 | 8.0 | 17.7 | 0.00 | 2.59 | 0.00 | 62 | 1004.4 |
| 20260506131706 | 17 | 222 | 9.7 | 19.3 | 0.00 | 2.59 | 0.00 | 62 | 1004.4 |
| 20260506131208 | 17 | 240 | 11.3 | 19.3 | 0.00 | 2.59 | 0.00 | 60 | 1004.3 |
| 20260506130205 | 18 | 255 | 6.4 | 16.1 | 0.00 | 2.59 | 0.00 | 62 | 1004.1 |
| 20260506125705 | 18 | 245 | 8.0 | 16.1 | 0.00 | 2.59 | 0.00 | 61 | 1004.1 |
| 20260506125206 | 17 | 151 | 8.0 | 16.1 | 0.00 | 2.59 | 0.00 | 63 | 1004.2 |
| 20260506124708 | 17 | 264 | 6.4 | 17.7 | 0.00 | 2.59 | 0.00 | 62 | 1004.2 |
| 20260506124205 | 17 | 226 | 8.0 | 17.7 | 0.00 | 2.59 | 0.00 | 66 | 1004.3 |
| 20260506123708 | 17 | 219 | 9.7 | 19.3 | 0.00 | 2.59 | 0.00 | 64 | 1004.3 |
| 20260506123209 | 17 | 240 | 11.3 | 19.3 | 0.00 | 2.59 | 0.00 | 61 | 1004.4 |
| 20260506122705 | 17 | 276 | 9.7 | 19.3 | 0.00 | 2.59 | 0.00 | 63 | 1004.4 |
| 20260506122206 | 16 | 148 | 9.7 | 19.3 | 0.00 | 2.59 | 0.00 | 64 | 1004.5 |
| 20260506121706 | 17 | 201 | 11.3 | 20.9 | 0.00 | 2.59 | 0.00 | 63 | 1004.5 |
| 20260506121205 | 16 | 210 | 11.3 | 20.9 | 0.00 | 2.59 | 0.00 | 66 | 1004.5 |
| 20260506120705 | 17 | 250 | 12.9 | 20.9 | 0.00 | 2.59 | 0.00 | 64 | 1004.5 |
| 20260506120205 | 17 | 207 | 11.3 | 19.3 | 0.00 | 2.59 | 0.00 | 63 | 1004.5 |
| 20260506115705 | 17 | 229 | 9.7 | 20.9 | 0.00 | 2.59 | 0.00 | 64 | 1004.4 |
| 20260506114705 | 17 | 252 | 11.3 | 17.7 | 0.00 | 2.59 | 0.00 | 63 | 1004.5 |
| 20260506114206 | 17 | 221 | 8.0 | 11.3 | 0.00 | 2.59 | 0.00 | 66 | 1004.6 |
| 20260506113706 | 16 | 210 | 8.0 | 20.9 | 0.00 | 2.59 | 0.00 | 69 | 1004.6 |
| 20260506113206 | 16 | 245 | 9.7 | 20.9 | 0.00 | 2.59 | 0.00 | 71 | 1004.6 |
| 20260506112213 | 16 | 207 | 11.3 | 20.9 | 0.00 | 2.59 | 0.00 | 67 | 1004.7 |
| 20260506111705 | 16 | 214 | 12.9 | 20.9 | 0.00 | 2.59 | 0.00 | 68 | 1004.7 |
| 20260506110205 | 18 | 163 | 11.3 | 20.9 | 0.00 | 2.59 | 0.00 | 70 | 1004.6 |
| 20260506105205 | 17 | 160 | 9.7 | 19.3 | 0.00 | 2.59 | 0.00 | 68 | 1004.9 |